Hourly Weather Roundup
Issued by NWS Central Illinois

Home | Current Version | Previous Version | Text Only | Print | Product List | Glossary On
Versions: 1 2 3 4 5 6 7 8 9 10 11 12 13 14 15 16 17 18 19 20 21 22 23 24 25 26 27 28 29 30 31 32 33 34 35 36 37 38 39 40 41 42 43 44 45 46 47 48 49 50
148
NZUS43 KILX 060110
HWRILX

AREA WEATHER ROUNDUP
NATIONAL WEATHER SERVICE, LINCOLN IL
700 PM CST MON DEC 05 2016


CITY           SKY/WX    TMP DP  RH WIND       PRES   REMARKS
BLOOMINGTON    PTCLDY    34  33  96 E8        29.93F WCI  27
CHAMPAIGN      PTCLDY    34  31  88 E8        29.92F WCI  27
DANVILLE       CLOUDY    34  33  94 E5        29.92F WCI  30
DECATUR        PTCLDY    32  30  92 E6        29.91F WCI  26
EFFINGHAM      CLEAR     36  36  99 E6        29.92F WCI  31
FLORA          CLEAR     36  33  90 E5        29.91F WCI  32
GALESBURG      CLOUDY    34  33  95 SE6       29.90F WCI  29
JACKSONVILLE   CLEAR     33  32  96 E8        29.88S WCI  26
LACON          CLOUDY    33  32  97 SE6       29.94F WCI  27
LAWRENCEVILLE  CLEAR     35  32  88 E8        29.92F WCI  29
LITCHFIELD     PTCLDY    36  34  92 SE9       29.87F WCI  29
$$


CITY           SKY/WX    TMP DP  RH WIND       PRES   REMARKS
LINCOLN        CLOUDY    34  34  99 E5        29.92S WCI  30
MACOMB         CLOUDY    36  34  94 SE9       29.91R WCI  29
MATTOON        PTCLDY    35  32  88 E6        29.90F WCI  30
MT CARMEL AP   CLOUDY    33  31  92 E8        29.91F WCI  27
OLNEY-NOBLE AP CLEAR     34  34 100 E5        29.91F WCI  30
PARIS          CLEAR     35  32  90 E7        29.93F WCI  29
PEORIA         CLOUDY    36  34  92 E6        29.93F WCI  31
PONTIAC        CLOUDY    34  34 100 E7        29.96F FOG     WCI  28
RANTOUL        PTCLDY    34  33  97 E8        29.93F WCI  27
SPRINGFIELD    CLOUDY    36  34  92 E7        29.90F WCI  30
TAYLORVILLE    CLOUDY    36  34  93 E7        29.89F WCI  30
$$

...REGIONAL REPORTS...


CITY           SKY/WX    TMP DP  RH WIND       PRES   REMARKS
CHICAGO O`HARE CLOUDY    32  30  92 SE7       29.98S FOG     WCI  26
KANKAKEE       CLEAR     32  31  96 CALM      29.98S
MOLINE         CLOUDY    35  31  85 SE12      29.90F WCI  27
MOUNT STERLING CLEAR     34  33  97 E8        29.87R FOG     WCI  27
MOUNT VERNON   NOT AVBL
PITTSFIELD     CLEAR     36  35  94 E5        29.87F WCI  32
QUINCY         CLEAR     36  34  92 E12       29.84F FOG     WCI  28
ROCKFORD       CLOUDY    31  29  92 SE12      29.96F FOG     WCI  22
$$


CITY           SKY/WX    TMP DP  RH WIND       PRES   REMARKS
BURLINGTON     CLOUDY    36  34  92 E9        29.86F WCI  29
CEDAR RAPIDS   CLOUDY    32  32 100 SE13G23   29.84S FOG     WCI  22
DES MOINES     PTCLDY    41  34  76 SE13      29.74S WCI  34
KIRKSVILLE     CLOUDY    37  37 100 SE13      29.81F FOG     WCI  29
OTTUMWA        CLOUDY    36  32  85 SE17      29.80F WCI  26
ST LOUIS       MOCLDY    40  34  79 E12       29.86S WCI  33
$$


CITY           SKY/WX    TMP DP  RH WIND       PRES   REMARKS
TERRE HAUTE    CLEAR     33  28  81 E5        29.94F WCI  29
EVANSVILLE     CLOUDY    40  35  83 E6        29.92F
INDIANAPOLIS   PTCLDY    37  33  85 E10       29.95F WCI  30
LAFAYETTE      CLEAR     34  32  92 E8        29.97F WCI  27
MADISON        CLOUDY    32  30  92 S13       29.92F WCI  22
MILWAUKEE      CLOUDY    34  31  88 S8        29.98R FOG     WCI  27
$$






USA.gov is the U.S. government's official web portal to all federal, state and local government web resources and services.